Location: Altavilla Irpina
(41.0000°N, 14.7833°E)
Time: 23:58:27
(UTC+00:00)

SeaSat 1 - Pass Details

Date: 19 May 2025
Orbit: 738 x 740 km, 108.0° (Epoch: 15 June)

Event Time Altitude Azimuth Distance (km) Brightness Sun altitude
Exits shadow 21:36:42 66° 250° (WSW) 808 2.5 -26.2°
Drops below altitude 10° 21:41:31 10° 328° (NNW) 2,255 5.9 -26.5°
Sets 21:43:49 0° 332° (NNW) 3,183 7.0 -26.7°
